Flag Weather past 2 weeks in Mühlacker, Baden-Württemberg, Germany

Now
41 °F

Sunny.


Feels Like: 41 °F
Forecast: 37 / 53 °F
Wind: 2 mph from Northeast

Location: Stuttgart-Echterdingen

Current Time: Nov 21, 2014 at 9:51:02 AM

Latest Report: Nov 21, 2014 at 9:20 AM


Visibility: 10 mi

Pressure: 30.18 "Hg

Humidity: 93%

Dew point: 39 °F

Location of MühlackerLocation

Historic Weather in Mühlacker — Graph

°F

Mühlacker temperature yesterday

Maximum temperature yesterday: 45 °F (at 1:50 PM)
Minimum temperature yesterday: 34 °F (at 2:50 AM)
Average temperature yesterday: 39 °F

Past Weeks' High & Low Weather Summary

 TemperatureHumidityPressure
High55 °F (Nov 7, 2:50 PM)100% (Nov 6, 10:50 PM)30.30 "Hg (Nov 6, 10:50 PM)
Low32 °F (Nov 7, 5:20 AM)55% (Nov 8, 2:50 PM)29.53 "Hg (Nov 15, 10:20 PM)
Average44 °F91%29.84 "Hg
* Reported Nov 6 8:20 AM — Nov 21 8:20 AM, Mühlacker, Weather by CustomWeather, © 2014

Note: Actual official high and low records may vary slightly from our data, if they occured in-between our weather recording intervals... More about our weather records

Advertising

Mühlacker weather history for previous 24 hours

 ConditionsComfort  
Time TempWeatherWind HumidityBarometerVisibility
8:20 AM
Nov 21
39 °FLight rain. Partly sunny.1 mph93%30.18 "HgN/A
7:50 AM39 °FSunny.1 mph93%30.18 "Hg10 mi
7:20 AM39 °FClear.1 mph93%30.18 "Hg10 mi
6:50 AM39 °FClear.No wind93%30.18 "Hg10 mi
6:20 AM39 °FClear.1 mph93%30.18 "Hg10 mi
5:50 AM39 °FClear.2 mph93%30.18 "Hg10 mi
5:20 AM39 °FClear.2 mph93%30.18 "Hg10 mi
4:50 AM37 °FClear.2 mph100%30.18 "Hg10 mi
4:20 AM37 °FClear.3 mph100%30.21 "Hg10 mi
3:50 AM37 °FClear.2 mph100%30.21 "Hg10 mi
3:20 AM39 °FClear.3 mph93%30.21 "Hg10 mi
2:50 AM37 °FClear.2 mph100%30.21 "Hg10 mi
2:20 AM39 °FClear.3 mph93%30.21 "Hg10 mi
1:50 AM39 °FClear.3 mph93%30.21 "Hg10 mi
1:20 AM39 °FClear.3 mph93%30.21 "Hg10 mi
12:50 AM39 °FClear.1 mph93%30.24 "Hg10 mi
12:20 AM39 °FClear.2 mph93%30.24 "Hg10 mi
11:50 PM
Nov 20
39 °FClear.1 mph93%30.24 "Hg10 mi
11:20 PM39 °FClear.1 mph93%30.24 "Hg10 mi
10:50 PM41 °FPartly cloudy.2 mph87%30.24 "HgN/A
10:20 PM43 °FPassing clouds.5 mph81%30.24 "HgN/A
9:50 PM43 °FPassing clouds.3 mph87%30.27 "HgN/A
9:20 PM43 °FPassing clouds.5 mph87%30.27 "HgN/A
8:50 PM43 °FPassing clouds.5 mph87%30.27 "HgN/A
8:20 PM43 °FPassing clouds.5 mph87%30.27 "HgN/A
7:50 PM43 °FPassing clouds.5 mph87%30.24 "HgN/A
7:20 PM43 °FPartly cloudy.6 mph87%30.24 "HgN/A
6:50 PM43 °FPartly cloudy.5 mph93%30.24 "HgN/A
6:20 PM43 °FPassing clouds.6 mph93%30.24 "HgN/A
5:50 PM43 °FPassing clouds.7 mph87%30.24 "HgN/A
5:20 PM43 °FPassing clouds.5 mph93%30.24 "HgN/A
4:50 PM43 °FPassing clouds.6 mph87%30.24 "HgN/A
4:20 PM43 °FPartly sunny.7 mph87%30.24 "HgN/A
3:50 PM45 °FPartly sunny.8 mph81%30.24 "HgN/A
3:20 PM45 °FPartly sunny.8 mph87%30.24 "HgN/A
2:50 PM45 °FBroken clouds.8 mph87%30.24 "HgN/A
2:20 PM45 °FPartly sunny.8 mph87%30.24 "HgN/A
1:50 PM45 °FPartly sunny.3 mph93%30.27 "HgN/A
1:20 PM43 °FScattered clouds.5 mph100%30.27 "Hg4 mi
12:50 PM41 °FFog.3 mph100%30.27 "Hg2 mi
12:20 PM39 °FFog.2 mph100%30.27 "Hg0 mi
11:50 AM37 °FFog.2 mph100%30.27 "Hg0 mi
11:20 AM37 °FFog.2 mph100%30.30 "Hg0 mi
10:50 AM36 °FFog.2 mph100%30.30 "Hg0 mi
10:20 AM36 °FFog.1 mph100%30.27 "Hg0 mi
9:20 AM36 °FFog.2 mph100%30.30 "Hg0 mi
Weather by CustomWeather, © 2014

See weather overviewHow to use our weather pages